Location: Seoul
(37.5670°N, 127.0000°E)
Time: 00:25:48
(UTC+09:00)

ISS - Pass Details

Date: 19 November 2025
Orbit: 416 x 420 km, 51.6° (Epoch: 10 December)

Event Time Altitude Azimuth Distance (km) Brightness Sun altitude
Rises 18:25:59 0° 288° (WNW) 2,366 1.1 -13.4°
Reaches altitude 10° 18:29:31 10° 327° (NNW) 1,501 -0.7 -14.1°
Maximum altitude 18:30:28 11° 343° (NNW) 1,446 -1.0 -14.3°
Drops below altitude 10° 18:31:28 10° 0° (N) 1,503 -1.1 -14.5°
Enters shadow 18:32:12 - 12° (NNE) 1,617 -1.0 -14.6°
